| time (UTC) | temp F | wind direction | speed MPH | gust MPH | rain 1hr in | rain 24hr in | rain mn in | humidity % | barometer mb |
| 20260507184513 | 58 | 344 | 4.0 | 12.0 | 0.00 | 0.00 | 0.00 | 30 | 1010.9 |
| 20260507183028 | 58 | 278 | 2.0 | 14.0 | 0.00 | 0.00 | 0.00 | 30 | 1010.9 |
| 20260507181557 | 57 | 328 | 2.0 | 11.0 | 0.00 | 0.00 | 0.00 | 30 | 1011.0 |
| 20260507180053 | 57 | 330 | 2.0 | 9.0 | 0.00 | 0.00 | 0.00 | 32 | 1011.1 |
| 20260507174604 | 56 | 326 | 6.0 | 12.0 | 0.00 | 0.00 | 0.00 | 32 | 1011.2 |
| 20260507173057 | 57 | 300 | 2.0 | 7.0 | 0.00 | 0.00 | 0.00 | 32 | 1011.6 |
| 20260507171605 | 55 | 330 | 4.0 | 9.0 | 0.00 | 0.00 | 0.00 | 34 | 1011.8 |
| 20260507170044 | 55 | 11 | 1.0 | 8.0 | 0.00 | 0.00 | 0.00 | 35 | 1011.8 |
| 20260507164559 | 55 | 86 | 1.0 | 11.0 | 0.00 | 0.00 | 0.00 | 38 | 1011.8 |
| 20260507163040 | 54 | 105 | 2.0 | 10.0 | 0.00 | 0.00 | 0.00 | 37 | 1012.0 |
| 20260507161533 | 53 | 33 | 1.0 | 10.0 | 0.00 | 0.00 | 0.00 | 43 | 1012.0 |
| 20260507160020 | 53 | 210 | 2.0 | 9.0 | 0.00 | 0.00 | 0.00 | 41 | 1012.0 |
| 20260507154559 | 53 | 94 | 3.0 | 8.0 | 0.00 | 0.00 | 0.00 | 44 | 1012.0 |
| 20260507153059 | 52 | 60 | 1.0 | 6.0 | 0.00 | 0.00 | 0.00 | 43 | 1012.0 |
| 20260507151543 | 52 | 34 | 2.0 | 5.0 | 0.00 | 0.00 | 0.00 | 43 | 1012.1 |
| 20260507150040 | 52 | 328 | 2.0 | 6.0 | 0.00 | 0.00 | 0.00 | 43 | 1012.2 |
| 20260507144522 | 53 | 29 | 2.0 | 8.0 | 0.00 | 0.00 | 0.00 | 43 | 1012.2 |
| 20260507143020 | 51 | 63 | 2.0 | 7.0 | 0.00 | 0.00 | 0.00 | 44 | 1012.1 |
| 20260507141504 | 50 | 65 | 3.0 | 11.0 | 0.00 | 0.00 | 0.00 | 46 | 1012.3 |
| 20260507140100 | 50 | 60 | 4.0 | 10.0 | 0.00 | 0.00 | 0.00 | 46 | 1012.4 |
| 20260507134551 | 49 | 58 | 6.0 | 12.0 | 0.00 | 0.00 | 0.00 | 48 | 1012.5 |
| 20260507133040 | 48 | 34 | 6.0 | 10.0 | 0.00 | 0.00 | 0.00 | 48 | 1012.6 |
| 20260507131527 | 47 | 71 | 7.0 | 10.0 | 0.00 | 0.00 | 0.00 | 49 | 1012.6 |
| 20260507130020 | 46 | 70 | 7.0 | 10.0 | 0.00 | 0.00 | 0.00 | 51 | 1012.8 |
| 20260507124601 | 44 | 67 | 3.0 | 6.0 | 0.00 | 0.00 | 0.00 | 57 | 1012.9 |
| 20260507123108 | 0 | 0.0 | 0.0 | 0.00 | 0.00 | 0.00 | 1012.9 | ||
| 20260507121540 | 0 | 0.0 | 0.0 | 0.00 | 0.00 | 0.00 | 1013.0 | ||
| 20260507120034 | 0 | 0.0 | 0.0 | 0.00 | 0.00 | 0.00 | 1013.2 | ||
| 20260507114521 | 0 | 0.0 | 0.0 | 0.00 | 0.00 | 0.00 | 1013.5 | ||
| 20260507113007 | 0 | 0.0 | 0.0 | 0.00 | 0.00 | 0.00 | 1013.3 | ||
| 20260507111546 | 36 | 51 | 1.0 | 2.0 | 0.00 | 0.00 | 0.00 | 73 | 1012.7 |
| 20260507110100 | 35 | 54 | 2.0 | 5.0 | 0.00 | 0.00 | 0.00 | 70 | 1012.6 |
| 20260507104527 | 36 | 58 | 4.0 | 7.0 | 0.00 | 0.00 | 0.00 | 69 | 1012.7 |
| 20260507103029 | 35 | 55 | 1.0 | 4.0 | 0.00 | 0.00 | 0.00 | 70 | 1012.9 |
| 20260507101516 | 36 | 72 | 1.0 | 3.0 | 0.00 | 0.00 | 0.00 | 69 | 1012.9 |
| 20260507100005 | 35 | 53 | 0.0 | 2.0 | 0.00 | 0.00 | 0.00 | 71 | 1013.0 |
| 20260507094621 | 34 | 25 | 1.0 | 3.0 | 0.00 | 0.00 | 0.00 | 71 | 1013.2 |
| 20260507093056 | 36 | 348 | 2.0 | 4.0 | 0.00 | 0.00 | 0.00 | 68 | 1013.2 |
| 20260507091615 | 39 | 90 | 4.0 | 7.0 | 0.00 | 0.00 | 0.00 | 63 | 1013.1 |
| 20260507090055 | 38 | 142 | 5.0 | 7.0 | 0.00 | 0.00 | 0.00 | 66 | 1013.2 |
| 20260507084550 | 37 | 128 | 3.0 | 5.0 | 0.00 | 0.00 | 0.00 | 69 | 1013.2 |
| 20260507083044 | 37 | 130 | 2.0 | 5.0 | 0.00 | 0.00 | 0.00 | 70 | 1013.4 |
| 20260507081543 | 36 | 150 | 1.0 | 6.0 | 0.00 | 0.00 | 0.00 | 68 | 1013.4 |
| 20260507080038 | 36 | 120 | 4.0 | 6.0 | 0.00 | 0.00 | 0.00 | 67 | 1013.7 |
| 20260507074543 | 37 | 124 | 3.0 | 6.0 | 0.00 | 0.00 | 0.00 | 65 | 1013.9 |
| 20260507073014 | 38 | 110 | 1.0 | 2.0 | 0.00 | 0.00 | 0.00 | 62 | 1014.5 |
| 20260507071513 | 37 | 51 | 3.0 | 4.0 | 0.00 | 0.00 | 0.00 | 62 | 1014.6 |
| 20260507064551 | 37 | 72 | 0.0 | 1.0 | 0.00 | 0.00 | 0.00 | 63 | 1014.7 |
| 20260507063035 | 37 | 72 | 1.0 | 2.0 | 0.00 | 0.00 | 0.00 | 60 | 1014.7 |
| 20260507061529 | 38 | 79 | 1.0 | 3.0 | 0.00 | 0.00 | 0.00 | 60 | 1014.6 |
| 20260507060011 | 38 | 110 | 0.0 | 2.0 | 0.00 | 0.00 | 0.00 | 61 | 1014.7 |
| 20260507054509 | 39 | 108 | 2.0 | 3.0 | 0.00 | 0.00 | 0.00 | 60 | 1014.5 |
| 20260507053053 | 39 | 122 | 0.0 | 1.0 | 0.00 | 0.00 | 0.00 | 61 | 1014.7 |
| 20260507051550 | 39 | 122 | 0.0 | 1.0 | 0.00 | 0.00 | 0.00 | 60 | 1014.8 |
| 20260507050039 | 39 | 121 | 1.0 | 3.0 | 0.00 | 0.00 | 0.00 | 59 | 1014.8 |
| 20260507044530 | 39 | 123 | 2.0 | 3.0 | 0.00 | 0.00 | 0.00 | 57 | 1014.8 |
| 20260507043010 | 39 | 96 | 2.0 | 3.0 | 0.00 | 0.00 | 0.00 | 56 | 1014.9 |
| 20260507041508 | 39 | 103 | 3.0 | 4.0 | 0.00 | 0.00 | 0.00 | 55 | 1014.8 |
| 20260507040047 | 40 | 96 | 2.0 | 3.0 | 0.00 | 0.00 | 0.00 | 55 | 1014.9 |
| 20260507034556 | 41 | 94 | 3.0 | 4.0 | 0.00 | 0.00 | 0.00 | 54 | 1015.0 |
| 20260507033041 | 40 | 116 | 3.0 | 5.0 | 0.00 | 0.00 | 0.00 | 54 | 1015.0 |
| 20260507031531 | 41 | 124 | 4.0 | 5.0 | 0.00 | 0.00 | 0.00 | 54 | 1015.3 |
| 20260507030028 | 41 | 97 | 3.0 | 3.0 | 0.00 | 0.00 | 0.00 | 53 | 1015.4 |
| 20260507024545 | 42 | 73 | 2.0 | 3.0 | 0.00 | 0.00 | 0.00 | 52 | 1015.5 |
| 20260507023027 | 43 | 59 | 2.0 | 3.0 | 0.00 | 0.00 | 0.00 | 52 | 1015.5 |
| 20260507021526 | 43 | 58 | 0.0 | 0.0 | 0.00 | 0.00 | 0.00 | 52 | 1015.4 |
| 20260507020026 | 43 | 59 | 0.0 | 2.0 | 0.00 | 0.00 | 0.00 | 51 | 1015.3 |
| 20260507014535 | 42 | 8 | 0.0 | 0.0 | 0.00 | 0.00 | 0.00 | 53 | 1015.4 |
| 20260507013005 | 43 | 8 | 0.0 | 0.0 | 0.00 | 0.00 | 0.00 | 51 | 1015.2 |
| 20260507011505 | 45 | 8 | 0.0 | 0.0 | 0.00 | 0.00 | 0.00 | 48 | 1015.2 |
| 20260507010105 | 48 | 349 | 0.0 | 3.0 | 0.00 | 0.00 | 0.00 | 46 | 1015.2 |
| 20260507004547 | 49 | 341 | 1.0 | 5.0 | 0.00 | 0.00 | 0.00 | 43 | 1015.2 |
| 20260507003029 | 50 | 343 | 4.0 | 9.0 | 0.00 | 0.00 | 0.00 | 42 | 1015.2 |
| 20260507001533 | 51 | 318 | 3.0 | 8.0 | 0.00 | 0.00 | 0.00 | 40 | 1015.1 |
| 20260507000010 | 51 | 25 | 3.0 | 9.0 | 0.00 | 0.00 | 0.00 | 41 | 1015.2 |
| 20260506234508 | 52 | 329 | 2.0 | 12.0 | 0.00 | 0.00 | 0.00 | 40 | 1015.2 |
| 20260506233059 | 52 | 310 | 3.0 | 11.0 | 0.00 | 0.00 | 0.00 | 40 | 1015.3 |
| 20260506231549 | 52 | 288 | 5.0 | 13.0 | 0.00 | 0.00 | 0.00 | 40 | 1015.4 |
| 20260506230030 | 52 | 311 | 2.0 | 9.0 | 0.00 | 0.00 | 0.00 | 40 | 1015.5 |
| 20260506224528 | 52 | 8 | 5.0 | 13.0 | 0.00 | 0.00 | 0.00 | 40 | 1015.6 |
| 20260506223009 | 52 | 293 | 6.0 | 14.0 | 0.00 | 0.00 | 0.00 | 40 | 1015.6 |
| 20260506221506 | 52 | 316 | 2.0 | 11.0 | 0.00 | 0.00 | 0.00 | 40 | 1015.7 |
| 20260506220051 | 50 | 302 | 4.0 | 15.0 | 0.00 | 0.00 | 0.00 | 42 | 1015.8 |
| 20260506214550 | 51 | 311 | 7.0 | 17.0 | 0.00 | 0.00 | 0.00 | 41 | 1016.0 |
| 20260506213027 | 50 | 336 | 4.0 | 12.0 | 0.00 | 0.00 | 0.00 | 42 | 1016.1 |
| 20260506211528 | 50 | 273 | 4.0 | 11.0 | 0.00 | 0.00 | 0.00 | 43 | 1016.2 |
| 20260506210006 | 50 | 9 | 3.0 | 10.0 | 0.00 | 0.00 | 0.00 | 43 | 1016.5 |
| 20260506204505 | 48 | 315 | 5.0 | 15.0 | 0.00 | 0.00 | 0.00 | 43 | 1016.6 |
| 20260506203045 | 49 | 329 | 3.0 | 11.0 | 0.00 | 0.00 | 0.00 | 43 | 1016.7 |
| 20260506201543 | 49 | 314 | 3.0 | 14.0 | 0.00 | 0.00 | 0.00 | 45 | 1016.8 |
| 20260506200022 | 49 | 321 | 4.0 | 10.0 | 0.00 | 0.00 | 0.00 | 45 | 1016.9 |
| 20260506194520 | 47 | 307 | 7.0 | 17.0 | 0.00 | 0.00 | 0.00 | 45 | 1017.0 |
| 20260506193100 | 47 | 316 | 5.0 | 10.0 | 0.00 | 0.00 | 0.00 | 45 | 1017.1 |
| 20260506191559 | 47 | 354 | 4.0 | 12.0 | 0.00 | 0.00 | 0.00 | 45 | 1017.1 |
| 20260506190038 | 47 | 304 | 6.0 | 13.0 | 0.00 | 0.00 | 0.00 | 47 | 1017.2 |